Regional Weather Roundup
Issued by NWS

Home | Current Version | Previous Version | Text Only | Print | Product List | Glossary On
Versions: 1 2 3 4 5 6 7 8 9 10 11 12 13 14 15 16 17 18 19 20 21 22 23 24 25 26 27 28 29 30 31 32 33 34 35 36 37 38 39 40 41 42 43 44 45 46 47 48 49 50
000
ASUS43 KOAX 260910
RWRNE

WEATHER ROUNDUP FOR NEBRASKA
NATIONAL WEATHER SERVICE OMAHA NE
400 AM CDT FRI MAY 26 2017

NOTES: SATELLITE DATA IS BEING USED TO AUGMENT CLOUD COVER ABOVE
       12000 FEET.
       "FAIR" INDICATES FEW OR NO CLOUDS BELOW 12,000 FEET WITH NO
       SIGNIFICANT WEATHER AND/OR OBSTRUCTIONS TO VISIBILITY.

  * THESE STATIONS DO NOT REPORT WEATHER SUCH AS RAIN...SNOW OR FOG.

NEZ001>004-019>022-054>056-261000-
NEBRASKA PANHANDLE

CITY           SKY/WX    TMP DP  RH WIND       PRES   REMARKS
SCOTTSBLUFF    PTCLDY    47  35  63 NW10      29.93R
ALLIANCE       CLOUDY    46  41  82 NW9       29.89R
CHADRON        PTCLDY    45  38  76 CALM      29.89R
GORDON         FAIR      45  38  77 CALM      29.87R
KIMBALL        CLEAR     45  39  78 NW12      29.94R
SIDNEY         CLOUDY    46  42  86 NW10      29.91R
$$

NEZ057>060-069>072-079>082-261000-
SOUTHWEST NEBRASKA

CITY           SKY/WX    TMP DP  RH WIND       PRES   REMARKS
NORTH PLATTE   MOCLDY    55  53  93 NW7G20    29.82R
IMPERIAL       CLOUDY    56  52  86 NW12      29.83R
LEXINGTON      MOCLDY    60  54  82 N7        29.74R
MCCOOK         CLOUDY    59  54  83 NW7       29.77R
OGALLALA       CLOUDY    55  47  75 NE9G18    29.85R
$$

NEZ005>010-023>029-035>040-094-261000-
NORTH CENTRAL NEBRASKA

CITY           SKY/WX    TMP DP  RH WIND       PRES   REMARKS
VALENTINE      PTCLDY    51  40  65 NW6       29.83R
AINSWORTH      MOCLDY    54  44  68 N16       29.80R
BROKEN BOW     CLOUDY    59  49  69 N17       29.76R
O`NEILL        MOCLDY    57  44  59 NW15G21   29.74R
ORD            CLOUDY    57  52  83 NW14      29.70R
THEDFORD       CLOUDY    53  43  68 N8        29.83R
$$

NEZ041-046>049-061>064-073>077-083>087-261000-
SOUTH CENTRAL NEBRASKA

CITY           SKY/WX    TMP DP  RH WIND       PRES   REMARKS
GRAND ISLAND   CLOUDY    59  56  89 N3        29.67R
AURORA         CLOUDY    60  57  91 NW8       29.66R
HASTINGS       MOCLDY    62  55  77 N8        29.67R
HEBRON         CLOUDY    63  60  92 CALM      29.64S
HOLDREGE       PTCLDY    58  54  84 NW7       29.72R
KEARNEY *      CLOUDY    61  52  72 N9        29.69R
YORK           CLOUDY    61  57  88 N5        29.66R
$$

NEZ011>018-030>034-042>045-261000-
NORTHEAST NEBRASKA

CITY           SKY/WX    TMP DP  RH WIND       PRES   REMARKS
NORFOLK        MOCLDY    54  50  86 W3        29.66R
ALBION         CLOUDY    57  53  87 CALM      29.67S
BLAIR          CLOUDY    65  56  72 SE3       29.64S
FREMONT        CLOUDY    64  56  73 CALM      29.64F
TEKAMAH        CLOUDY    62  56  80 SE6       29.64S
WAYNE          CLOUDY    56  55  99 CALM      29.66S
$$

NEZ050>053-065>068-078-088>093-261000-
SOUTHEAST NEBRASKA

CITY           SKY/WX    TMP DP  RH WIND       PRES   REMARKS
LINCOLN        CLOUDY    63  58  83 NE7       29.62F
OMAHA EPPLEY   CLOUDY    65  55  70 SE5       29.64R
BEATRICE       MOCLDY    62  60  95 CALM      29.63R
FALLS CITY     CLOUDY    61  58  90 NE3       29.59R
NEBRASKA CITY  RAIN      64  54  69 CALM      29.64R
PLATTSMOUTH    CLOUDY    65  57  73 E3        29.63S
$$

NEZ044-045-051>053-067-261000-
OMAHA AREA

CITY           SKY/WX    TMP DP  RH WIND       PRES   REMARKS
OMAHA EPPLEY   CLOUDY    65  55  70 SE5       29.64R
BLAIR          CLOUDY    65  56  72 SE3       29.64S
FREMONT        CLOUDY    64  56  73 CALM      29.64F
MILLARD        CLOUDY    65  59  81 CALM      29.64S
OFFUTT AFB     CLOUDY    62  56  81 E5        29.63R
PLATTSMOUTH    CLOUDY    65  57  73 E3        29.63S
WAHOO          FAIR      62  56  80 CALM      29.64S
$$




USA.gov is the U.S. government's official web portal to all federal, state and local government web resources and services.